Starlink 11258

operational
NORAD ID: 62598 Int'l Des: 2025-008 Owner: SPXS Country: US Constellation: starlink
LEOCIRCULAR

About Starlink 11258

Description loading...

Live Position

Loading 3D Globe...

Upcoming Passes

Altitude History

Altitude vs Time

uPlot chart will show altitude changes over time

Two-Line Element Set

1 62598U 25008M 25305.36871232 .00285900 00000-0 21489-2 0 9992
2 62598 42.9999 179.5516 0001320 286.2049 73.8674 15.70916454 47104
Epoch: Nov 1, 2025 • Age: 19 hours

Current Status

Altitude 356.6 km
Velocity 7.70 km/s
Sub-Earth Point 33.36°N, 127.07°E
Launch Date Jan 13, 2025
Age 0.7 years
Type internet

Technical Details

Classification Payload
Mass 960.00 kg
Dry Mass 910.00 kg
Total Mass 960.00 kg
Length 0.30 m
Diameter 4.10 m
Span 29.00 m
Shape Box + pan
Manufacturer SPXS
Bus Type Starlink V2MD
Phase Status In Orbit
Owner/State SPXS/US

Large Constellations

Loading constellations...